Location: Unspecified
(0.0000°N, 0.0000°E)
Time: 13:01:44
(UTC+00:00)

deb Explorer IX - Pass Details

Date: 19 December 2018
Orbit: 539 x 1112 km, 38.8° (Epoch: 15 July)

Event Time Altitude Azimuth Distance (km) Brightness Sun altitude
Rises 01:36:16 0° 300° (WNW) 2,992 - -56.4°
Reaches altitude 10° 01:38:32 10° 295° (WNW) 2,159 - -56.0°
Maximum altitude 01:43:26 50° 219° (SW) 994 - -55.1°
Drops below altitude 10° 01:49:16 10° 145° (SE) 2,554 - -54.1°
Exits shadow 01:50:45 - 142° (SE) 3,086 ? -53.8°
Sets 01:52:09 0° 140° (SE) 3,595 ? -53.5°
